Weather History for Ahmedabad, India

Change the Weather History Date:

Thursday, October 11, 2012

  Actual Average Record
Temperature  
Mean Temperature 82 °F -  
Max Temperature 98 °F 91 °F 100 °F (2008)
Min Temperature 65 °F 67 °F 65 °F (2012)
Cooling Degree Days 16    
Growing Degree Days 32 (Base 50)    
Moisture  
Dew Point 63 °F    
Average Humidity 53    
Maximum Humidity 88    
Minimum Humidity 17    
Precipitation  
Precipitation 0.00 in 0.03 in - ()
Sea Level Pressure  
Sea Level Pressure 29.80 in    
Wind  
Wind Speed 1 mph ()    
Max Wind Speed 6 mph    
Max Gust Speed -    
Visibility 2.7 miles    
Events      
Averages and records for this station are not official NWS values.
T = Trace of Precipitation, MM = Missing Value Source: Averaged Metar Reports

Daily Weather History Graph

Daily Weather History Graph

Search for Another Location

Airport:

Trip Planner

Search our weather history database for the weather conditions in past years. The results will help you decide how hot, cold, wet, or windy it might be!

Date:

Astronomy

Oct. 11, 2012 Rise Set
Actual Time 6:34 AM IST 6:17 PM IST
Civil Twilight 6:12 AM IST 6:39 PM IST
Nautical Twilight 5:45 AM IST 7:05 PM IST
Astronomical Twilight 5:19 AM IST 7:32 PM IST
Moon 2:15 AM IST (10/11) 3:12 PM IST (10/11)
Length of Visible Light 12h 27m
Length of Day
11h 42m
Waning Crescent, 22% of the Moon is Illuminated
Oct 11
Waning Crescent
Oct 15
New
Oct 22
First Quarter
Oct 30
Full
Nov 7
Last Quarter

Hourly Weather History & Observations

Time (IST) Temp. Heat Index Dew Point Humidity Pressure Visibility Wind Dir Wind Speed Gust Speed Precip Events Conditions
12:10 AM 75.2 °F - 60.8 °F 61% 29.83 in 2.5 mi Calm Calm - N/A   Smoke
12:40 AM 73.4 °F - 62.6 °F 69% 29.83 in 2.5 mi Calm Calm - N/A   Smoke
1:40 AM 71.6 °F - 62.6 °F 73% 29.80 in 2.5 mi Calm Calm - N/A   Haze
2:10 AM 69.8 °F - 62.6 °F 78% 29.80 in 2.5 mi Calm Calm - N/A   Haze
2:30 AM 69 °F - 63 °F 75% 29.82 in 1 mi Calm Calm - -   Haze
2:40 AM 69.8 °F - 62.6 °F 78% 29.80 in 2.5 mi Calm Calm - N/A   Haze
3:10 AM 69.8 °F - 64.4 °F 83% 29.80 in 2.5 mi Calm Calm - N/A   Haze
3:40 AM 69.8 °F - 64.4 °F 83% 29.80 in 2.5 mi Calm Calm - N/A   Haze
4:10 AM 69.8 °F - 62.6 °F 78% 29.80 in 2.5 mi Calm Calm - N/A   Haze
4:40 AM 69.8 °F - 62.6 °F 78% 29.80 in 2.5 mi Calm Calm - N/A   Haze
5:10 AM 68.0 °F - 62.6 °F 83% 29.80 in 2.5 mi Calm Calm - N/A   Haze
5:30 AM 69 °F - 60 °F 66% 29.82 in 1 mi Calm Calm - -   Haze
5:40 AM 68.0 °F - 64.4 °F 88% 29.83 in 2.5 mi Calm Calm - N/A   Haze
7:10 AM 69.8 °F - 60.8 °F 73% 29.86 in 1.9 mi Calm Calm - N/A   Haze
8:10 AM 77.0 °F - 64.4 °F 65% 29.86 in 1.4 mi Calm Calm - N/A   Haze
8:30 AM 76 °F - 64 °F 58% 29.89 in 2 mi Calm Calm - -   Haze
8:40 AM - - - N/A% 29.89 in 1.6 mi Calm Calm - N/A   Haze
9:10 AM 82.4 °F 83.9 °F 64.4 °F 54% 29.89 in 1.6 mi Calm Calm - N/A   Haze
9:40 AM 84.2 °F 85.0 °F 62.6 °F 48% 29.89 in 1.6 mi Calm Calm - N/A   Haze
11:30 AM 91 °F - 59 °F 24% 29.88 in 2 mi North 3.5 mph - -  
11:40 AM 95.0 °F 94.4 °F 59.0 °F 30% 29.83 in 3.7 mi NNE 3.5 mph - N/A   Unknown
12:10 PM 95.0 °F 94.4 °F 59.0 °F 30% 29.83 in 3.7 mi Calm Calm - N/A   Unknown
12:40 PM 96.8 °F 97.1 °F 60.8 °F 30% 29.83 in 3.7 mi NNW 3.5 mph - N/A   Unknown
1:10 PM 98.6 °F 99.4 °F 60.8 °F 29% 29.80 in 3.7 mi Variable 3.5 mph - N/A   Unknown
1:40 PM 98.6 °F 99.4 °F 60.8 °F 29% 29.77 in 3.7 mi NE 5.8 mph - N/A   Unknown
2:10 PM 98.6 °F 100.0 °F 62.6 °F 30% 29.77 in 3.7 mi NNE 5.8 mph - N/A   Unknown
2:30 PM 96 °F - 56 °F 17% 29.79 in 2 mi NW 4.6 mph - -  
2:40 PM 98.6 °F 99.4 °F 60.8 °F 29% 29.74 in 3.7 mi NE 4.6 mph - N/A   Unknown
3:10 PM 98.6 °F 99.4 °F 60.8 °F 29% 29.74 in 3.7 mi NE 5.8 mph - N/A   Unknown
3:40 PM 100.4 °F 101.3 °F 60.8 °F 27% 29.74 in 3.7 mi NE 4.6 mph - N/A   Unknown
4:10 PM 100.4 °F 100.2 °F 59.0 °F 25% 29.74 in 3.7 mi Calm Calm - N/A   Unknown
4:40 PM 100.4 °F 100.2 °F 59.0 °F 25% 29.74 in 3.7 mi NE 3.5 mph - N/A   Unknown
5:10 PM 98.6 °F 98.5 °F 59.0 °F 27% 29.74 in 3.7 mi NNE 3.5 mph - N/A   Unknown
5:30 PM 93 °F - 69 °F 37% 29.82 in 2 mi Calm Calm - -   Clear
5:40 PM 96.8 °F 96.2 °F 59.0 °F 28% 29.74 in 3.7 mi NNE 4.6 mph - N/A   Unknown
6:10 PM 93.2 °F 91.9 °F 57.2 °F 30% 29.74 in 3.7 mi NNE 3.5 mph - N/A   Unknown
7:10 PM 89.6 °F 94.7 °F 69.8 °F 52% 29.77 in 2.5 mi Variable 3.5 mph - N/A   Smoke
7:40 PM 87.8 °F 91.4 °F 68.0 °F 52% 29.77 in 2.5 mi Calm Calm - N/A   Smoke
8:10 PM 86.0 °F 88.2 °F 66.2 °F 51% 29.80 in 2.5 mi Calm Calm - N/A   Smoke
8:30 PM 80 °F - 68 °F 59% 29.82 in 2 mi Calm Calm - -   Haze
9:40 PM 80.6 °F 82.7 °F 66.2 °F 61% 29.80 in 2.5 mi Calm Calm - N/A   Smoke
10:10 PM 80.6 °F 83.2 °F 68.0 °F 65% 29.80 in 2.5 mi Calm Calm - N/A   Haze
10:40 PM 78.8 °F - 71.6 °F 78% 29.80 in 2.5 mi Calm Calm - N/A   Haze
11:10 PM 80.6 °F 83.9 °F 69.8 °F 70% 29.80 in 2.5 mi Calm Calm - N/A   Haze
11:40 PM 78.8 °F - 66.2 °F 65% 29.80 in 2.5 mi Calm Calm - N/A   Haze